Weather History for Denali Park, AK

Change the Weather History Date:

Friday, November 23, 2012

  Actual Average Record
Temperature  
Mean Temperature -20 °F -  
Max Temperature -11 °F 16 °F 46 °F (2002)
Min Temperature -29 °F 0 °F -34 °F (1963)
Degree Days  
Heating Degree Days 85    
Moisture  
Dew Point -29 °F    
Average Humidity 77    
Maximum Humidity 84    
Minimum Humidity 69    
Precipitation  
Precipitation 0.00 in - - ()
Sea Level Pressure  
Sea Level Pressure 29.79 in    
Wind  
Wind Speed 0 mph (North)    
Max Wind Speed 0 mph    
Max Gust Speed -    
Visibility 10 miles    
Events      
Averages and records for this station are not official NWS values.
T = Trace of Precipitation, MM = Missing Value Source: NWS Daily Summary

Daily Weather History Graph

Daily Weather History Graph

Search for Another Location

Airport:

Trip Planner

Search our weather history database for the weather conditions in past years. The results will help you decide how hot, cold, wet, or windy it might be!

Date:

Astronomy

Nov. 23, 2012 Rise Set
Actual Time 9:47 AM AKST 3:36 PM AKST
Civil Twilight 8:43 AM AKST 4:39 PM AKST
Nautical Twilight 7:41 AM AKST 5:42 PM AKST
Astronomical Twilight 6:45 AM AKST 6:38 PM AKST
Moon 2:13 PM AKST 3:49 AM AKST
Length of Visible Light 7h 55m
Length of Day
5h 48m
Waxing Gibbous, 81% of the Moon is Illuminated
Nov 23
Waxing Gibbous
Nov 28
Full
Dec 6
Last Quarter
Dec 12
New
Dec 19
First Quarter

Hourly Weather History & Observations

Time (AKST) Temp. Dew Point Humidity Pressure Visibility Wind Dir Wind Speed Gust Speed Precip Events Conditions
12:16 AM -29.2 °F -34.6 °F 75% 29.76 in 10.0 mi Calm Calm - N/A   Clear
12:36 AM -29.2 °F -34.6 °F 75% 29.76 in 10.0 mi Calm Calm - N/A   Clear
12:56 AM -29.2 °F -34.6 °F 75% 29.76 in 10.0 mi Calm Calm - N/A   Clear
1:16 AM -29.2 °F -34.6 °F 75% 29.76 in 10.0 mi Calm Calm - N/A   Clear
1:36 AM -29.2 °F -34.6 °F 75% 29.75 in 10.0 mi Calm Calm - N/A   Clear
1:56 AM -29.2 °F -34.6 °F 75% 29.75 in 10.0 mi Calm Calm - N/A   Clear
2:16 AM -29.2 °F -34.6 °F 75% 29.75 in 10.0 mi Calm Calm - N/A   Clear
2:36 AM -29.2 °F -34.6 °F 75% 29.74 in 10.0 mi Calm Calm - N/A   Clear
3:16 AM -29.2 °F -32.8 °F 83% 29.74 in 10.0 mi Calm Calm - N/A   Clear
3:36 AM -27.4 °F -32.8 °F 75% 29.74 in 10.0 mi Calm Calm - N/A   Clear
3:56 AM -27.4 °F -34.6 °F 69% 29.74 in 10.0 mi Calm Calm - N/A   Clear
4:16 AM -29.2 °F -34.6 °F 75% 29.74 in 10.0 mi Calm Calm - N/A   Clear
4:36 AM -27.4 °F -32.8 °F 75% 29.74 in 10.0 mi Calm Calm - N/A   Clear
4:56 AM -29.2 °F -34.6 °F 75% 29.74 in 10.0 mi Calm Calm - N/A   Clear
5:16 AM -29.2 °F -34.6 °F 75% 29.73 in 10.0 mi Calm Calm - N/A   Clear
5:36 AM -29.2 °F -34.6 °F 75% 29.73 in 10.0 mi Calm Calm - N/A   Clear
5:56 AM -29.2 °F -34.6 °F 75% 29.74 in 10.0 mi Calm Calm - N/A   Clear
6:16 AM -27.4 °F -32.8 °F 75% 29.74 in 10.0 mi Calm Calm - N/A   Clear
6:36 AM -27.4 °F -32.8 °F 75% 29.74 in 10.0 mi Calm Calm - N/A   Clear
6:56 AM -27.4 °F -32.8 °F 75% 29.74 in 10.0 mi Calm Calm - N/A   Clear
7:16 AM -27.4 °F -32.8 °F 75% 29.74 in 10.0 mi Calm Calm - N/A   Clear
7:36 AM -27.4 °F -32.8 °F 75% 29.74 in 10.0 mi Calm Calm - N/A   Clear
7:56 AM -27.4 °F -32.8 °F 75% 29.75 in 10.0 mi Calm Calm - N/A   Clear
8:16 AM -27.4 °F -32.8 °F 75% 29.75 in 10.0 mi Calm Calm - N/A   Clear
8:36 AM -27.4 °F -32.8 °F 75% 29.75 in 10.0 mi Calm Calm - N/A   Clear
8:56 AM -27.4 °F -32.8 °F 75% 29.76 in 10.0 mi Calm Calm - N/A   Clear
9:16 AM -27.4 °F -32.8 °F 75% 29.76 in 10.0 mi Calm Calm - N/A   Clear
9:36 AM -27.4 °F -32.8 °F 75% 29.77 in 10.0 mi Calm Calm - N/A   Clear
9:56 AM -27.4 °F -32.8 °F 75% 29.77 in 10.0 mi Calm Calm - N/A   Clear
10:16 AM -27.4 °F -32.8 °F 75% 29.77 in 10.0 mi Calm Calm - N/A   Clear
10:36 AM -25.6 °F -31.0 °F 76% 29.78 in 10.0 mi Calm Calm - N/A   Clear
10:56 AM -25.6 °F -29.2 °F 83% 29.78 in 10.0 mi Calm Calm - N/A   Clear
11:16 AM -22.0 °F -25.6 °F 83% 29.78 in 10.0 mi Calm Calm - N/A   Clear
11:36 AM -18.4 °F -23.8 °F 76% 29.78 in 10.0 mi Calm Calm - N/A   Clear
11:56 AM -18.4 °F -23.8 °F 76% 29.78 in 10.0 mi Calm Calm - N/A   Clear
12:16 PM -16.6 °F -20.2 °F 84% 29.78 in 10.0 mi Calm Calm - N/A   Clear
12:36 PM -16.6 °F -20.2 °F 84% 29.78 in 10.0 mi Calm Calm - N/A   Clear
12:56 PM -14.8 °F -18.4 °F 84% 29.78 in 10.0 mi Calm Calm - N/A   Clear
1:16 PM -14.8 °F -20.2 °F 77% 29.79 in 10.0 mi Calm Calm - N/A   Clear
1:36 PM -14.8 °F -18.4 °F 84% 29.79 in 10.0 mi Calm Calm - N/A   Clear
1:56 PM -11.2 °F -18.4 °F 70% 29.79 in 10.0 mi Calm Calm - N/A   Clear
2:16 PM -13.0 °F -20.2 °F 70% 29.79 in 10.0 mi Calm Calm - N/A   Clear
2:36 PM -16.6 °F -22.0 °F 76% 29.79 in 10.0 mi Calm Calm - N/A   Clear
2:56 PM -16.6 °F -23.8 °F 70% 29.79 in 10.0 mi Calm Calm - N/A   Clear
3:16 PM -18.4 °F -23.8 °F 76% 29.80 in 10.0 mi Calm Calm - N/A   Clear
3:36 PM -18.4 °F -23.8 °F 76% 29.80 in 10.0 mi Calm Calm - N/A   Clear
3:56 PM -18.4 °F -23.8 °F 76% 29.80 in 10.0 mi Calm Calm - N/A   Clear
4:16 PM -20.2 °F -25.6 °F 76% 29.81 in 10.0 mi Calm Calm - N/A   Clear
4:36 PM -20.2 °F -25.6 °F 76% 29.81 in 10.0 mi Calm Calm - N/A   Clear
4:56 PM -20.2 °F -25.6 °F 76% 29.82 in 10.0 mi Calm Calm - N/A   Clear
5:16 PM -20.2 °F -25.6 °F 76% 29.82 in 10.0 mi Calm Calm - N/A   Clear
5:36 PM -20.2 °F -25.6 °F 76% 29.82 in 10.0 mi Calm Calm - N/A   Clear
5:56 PM -20.2 °F -27.4 °F 69% 29.82 in 10.0 mi Calm Calm - N/A   Clear
6:16 PM -23.8 °F -27.4 °F 83% 29.83 in 10.0 mi Calm Calm - N/A   Clear
6:36 PM -23.8 °F -27.4 °F 83% 29.83 in 10.0 mi Calm Calm - N/A   Clear
6:56 PM -23.8 °F -27.4 °F 83% 29.83 in 10.0 mi Calm Calm - N/A   Clear
7:16 PM -23.8 °F -27.4 °F 83% 29.83 in 10.0 mi Calm Calm - N/A   Clear
7:36 PM -23.8 °F -27.4 °F 83% 29.84 in 10.0 mi Calm Calm - N/A   Clear
7:56 PM -23.8 °F -27.4 °F 83% 29.84 in 10.0 mi Calm Calm - N/A   Clear
8:16 PM -23.8 °F -29.2 °F 76% 29.84 in 10.0 mi Calm Calm - N/A   Clear
8:36 PM -23.8 °F -29.2 °F 76% 29.84 in 10.0 mi Calm Calm - N/A   Clear
8:56 PM -23.8 °F -29.2 °F 76% 29.85 in 10.0 mi Calm Calm - N/A   Clear
9:16 PM -23.8 °F -29.2 °F 76% 29.85 in 10.0 mi Calm Calm - N/A   Clear
9:36 PM -25.6 °F -29.2 °F 83% 29.85 in 10.0 mi Calm Calm - N/A   Clear
9:56 PM -25.6 °F -29.2 °F 83% 29.86 in 10.0 mi Calm Calm - N/A   Clear
10:16 PM -25.6 °F -31.0 °F 76% 29.86 in 10.0 mi Calm Calm - N/A   Clear
10:36 PM -25.6 °F -31.0 °F 76% 29.86 in 10.0 mi Calm Calm - N/A   Clear
10:56 PM -25.6 °F -31.0 °F 76% 29.87 in 10.0 mi Calm Calm - N/A   Clear
11:16 PM -25.6 °F -31.0 °F 76% 29.87 in 10.0 mi Calm Calm - N/A   Clear
11:36 PM -27.4 °F -32.8 °F 75% 29.88 in 10.0 mi Calm Calm - N/A   Clear
11:56 PM -27.4 °F -32.8 °F 75% 29.88 in 10.0 mi Calm Calm - N/A   Clear